Location: ?????oe
(44.4874°N, 135.7046°E)
Time: 16:46:24
(UTC+00:00)

Cosmos 1842 - Pass Details

Date: 13 December 2025
Orbit: 413 x 425 km, 82.5° (Epoch: 22 January)

Event Time Altitude Azimuth Distance (km) Brightness Sun altitude
Exits shadow 20:54:57 - 0° (N) 2,321 6.3 -15.5°
Reaches altitude 10° 20:56:54 10° 9° (N) 1,542 5.5 -15.1°
Maximum altitude 20:59:59 34° 77° (ENE) 729 4.5 -14.6°
Drops below altitude 10° 21:03:02 10° 144° (SE) 1,517 6.4 -14.1°
Sets 21:05:10 0° 154° (SSE) 2,372 7.3 -13.7°
